Regional Weather Roundup
Issued by NWS

Home | Current Version | Previous Version | Text Only | Print | Product List | Glossary Off
Versions: 1 2 3 4 5 6 7 8 9 10 11 12 13 14 15 16 17 18 19 20 21 22 23 24 25 26 27 28 29 30 31 32 33 34 35 36 37 38 39 40 41 42 43 44 45 46 47 48 49 50

000
ASUS43 KIND 161559
RWRIN

WEATHER ROUNDUP FOR INDIANA
NATIONAL WEATHER SERVICE INDIANAPOLIS IN
1200 PM EDT WED APR 16 2014

NOTE: "FAIR" INDICATES FEW OR NO CLOUDS BELOW 12,000 FEET WITH NO
SIGNIFICANT WEATHER AND/OR OBSTRUCTIONS TO VISIBILITY.

* - STATION DOES NOT REPORT WEATHER SUCH AS PRECIPITATION OR FOG.

+ - STATION NOT QUALITY CONTROLLED BY THE NATIONAL WEATHER SERVICE.
    USE DATA WITH CAUTION...ESPECIALLY DEWPOINT AND RELATIVE
    HUMIDITY OBSERVATIONS.

INZ001>003-010>013-019-020-161700-
NORTHWEST INDIANA

CITY           SKY/WX    TMP DP  RH WIND       PRES   REMARKS
GARY /AIRPORT/ MOSUNNY   43  23  45 SE14G25   30.34S
MONTICELLO +   SUNNY     41  22  48 S13       30.35F
VALPARAISO     SUNNY     41  20  43 S15G23    30.34F

$$

LMZ046-743>745-161700-
SOUTHERN LAKE MICHIGAN

STATION/POSITION TIME  TEMP WIND        PRES
                       AIR  DIR/SP/G
                 (UTC) (F)  (DEG/KT/KT) (MB)
MICHIGAN CITY    1500   38  140/ 16/ 20   N/A

$$

INZ004-005-014>016-021>024-161700-
NORTH CENTRAL INDIANA

CITY           SKY/WX    TMP DP  RH WIND       PRES   REMARKS
ELKHART        SUNNY     39  16  38 S14G21    30.39R
GOSHEN         SUNNY     41  18  39 SE16      30.38S
SOUTH BEND     SUNNY     42  18  37 SE16      30.37R

$$

INZ006>009-017-018-025>027-161700-
NORTHEAST INDIANA

CITY           SKY/WX    TMP DP  RH WIND       PRES   REMARKS
ANGOLA *+      SUNNY     37  19  48 S13       30.39F
FORT WAYNE     MOSUNNY   39  17  41 SE13G18   30.42S

$$

INZ028-029-035-036-043>045-051>053-161700-
WEST CENTRAL INDIANA

CITY           SKY/WX    TMP DP  RH WIND       PRES   REMARKS
GREENCASTLE +  SUNNY     41  23  48 SE14G21   30.36S
LAFAYETTE      SUNNY     42  21  43 SE13      30.36S
TERRE HAUTE    SUNNY     43  24  47 SE13G21   30.36S

$$

INZ030>032-037>040-046>048-054>057-064-065-161700-
CENTRAL INDIANA

CITY           SKY/WX    TMP DP  RH WIND       PRES   REMARKS
ANDERSON       SUNNY     39  19  45 SE17G23   30.40
COLUMBUS       SUNNY     41  18  38 SE13      30.40S
INDIANAPOLIS   MOSUNNY   41  21  44 SE15      30.37S
-EAGLE CREEK   SUNNY     40  19  43 SE10      30.37S
KOKOMO *+      SUNNY     41  23  48 SE17      30.37F
MT COMFORT *+  SUNNY     41  21  45 SE13      30.38F
SHELBYVILLE    SUNNY     42  20  41 SE13      30.39R

$$

INZ033-034-041-042-049-050-058-059-161700-
EAST CENTRAL INDIANA

CITY           SKY/WX    TMP DP  RH WIND       PRES   REMARKS
MUNCIE         SUNNY     39  18  42 SE10      30.39S

$$

INZ060-061-067>069-081>083-085>088-161700-
SOUTHWEST INDIANA

CITY           SKY/WX    TMP DP  RH WIND       PRES   REMARKS
EVANSVILLE     MOSUNNY   45  24  43 E13G18    30.37R
HUNTINGBURG *+ MOSUNNY   45  23  42 SE10      30.37S

$$

INZ062-063-066-070>080-084-089>092-161700-
SOUTH CENTRAL AND SOUTHEAST INDIANA

CITY           SKY/WX    TMP DP  RH WIND       PRES   REMARKS
BLOOMINGTON    SUNNY     42  21  43 E14       30.37R

$$




USA.gov is the U.S. government's official web portal to all federal, state and local government web resources and services.